Regional Weather Roundup
Issued by NWS

Home | Current Version | Previous Version | Text Only | Print | Product List | Glossary Off
Versions: 1 2 3 4 5 6 7 8 9 10 11 12 13 14 15 16 17 18 19 20 21 22 23 24 25 26 27 28 29 30 31 32 33 34 35 36 37 38 39 40 41 42 43 44 45 46 47 48 49 50

000
ASUS43 KIND 151959
RWRIN

WEATHER ROUNDUP FOR INDIANA
NATIONAL WEATHER SERVICE INDIANAPOLIS IN
400 PM EDT TUE APR 15 2014

NOTE: "FAIR" INDICATES FEW OR NO CLOUDS BELOW 12,000 FEET WITH NO
SIGNIFICANT WEATHER AND/OR OBSTRUCTIONS TO VISIBILITY.

* - STATION DOES NOT REPORT WEATHER SUCH AS PRECIPITATION OR FOG.

+ - STATION NOT QUALITY CONTROLLED BY THE NATIONAL WEATHER SERVICE.
    USE DATA WITH CAUTION...ESPECIALLY DEWPOINT AND RELATIVE
    HUMIDITY OBSERVATIONS.

INZ001>003-010>013-019-020-152100-
NORTHWEST INDIANA

CITY           SKY/WX    TMP DP  RH WIND       PRES   REMARKS
GARY /AIRPORT/ PTSUNNY   34  14  44 NE14      30.18R WCI  24
VALPARAISO     MOSUNNY   33  10  38 N8        30.16S WCI  26

$$

LMZ046-743>745-152100-
SOUTHERN LAKE MICHIGAN

STATION/POSITION TIME  TEMP WIND        PRES
                       AIR  DIR/SP/G
                 (UTC) (F)  (DEG/KT/KT) (MB)
MICHIGAN CITY    1900   31  340/ 12/ 15   N/A

$$

INZ004-005-014>016-021>024-152100-
NORTH CENTRAL INDIANA

CITY           SKY/WX    TMP DP  RH WIND       PRES   REMARKS
ELKHART        PTSUNNY   32   7  34 N12G18    30.15R WCI  23
GOSHEN         CLOUDY    34  12  40 NW15G26   30.12S WCI  24
SOUTH BEND     MOSUNNY   34   7  32 NW20      30.16R WCI  23

$$

INZ006>009-017-018-025>027-152100-
NORTHEAST INDIANA

CITY           SKY/WX    TMP DP  RH WIND       PRES   REMARKS
ANGOLA *+      PTSUNNY   34  16  47 NW15      30.08R WCI  24
FORT WAYNE     PTSUNNY   35  16  45 NW14G23   30.11R WCI  26

$$

INZ028-029-035-036-043>045-051>053-152100-
WEST CENTRAL INDIANA

CITY           SKY/WX    TMP DP  RH WIND       PRES   REMARKS
GREENCASTLE +  CLOUDY    37  18  44 NW9G17    30.17R
LAFAYETTE      CLOUDY    35  16  45 NW10      30.17S WCI  27
TERRE HAUTE    CLOUDY    39  19  44 NW17      30.17S

$$

INZ030>032-037>040-046>048-054>057-064-065-152100-
CENTRAL INDIANA

CITY           SKY/WX    TMP DP  RH WIND       PRES   REMARKS
ANDERSON       MOSUNNY   36  16  44 NW17G29   30.14R
INDIANAPOLIS   PTSUNNY   35  18  49 NW16      30.15R WCI  25
-EAGLE CREEK   CLOUDY    36  16  44 NW16G23   30.15R
KOKOMO *+      MOSUNNY   36  12  38 NW14G22   30.14R
MT COMFORT *+  MOSUNNY   37  21  52 NW14G25   30.14S
SHELBYVILLE    CLOUDY    38  20  48 NW17      30.14R

$$

INZ033-034-041-042-049-050-058-059-152100-
EAST CENTRAL INDIANA

CITY           SKY/WX    TMP DP  RH WIND       PRES   REMARKS
MUNCIE         CLOUDY    35  19  52 N18G25    30.12R WCI  24

$$

INZ060-061-067>069-081>083-085>088-152100-
SOUTHWEST INDIANA

CITY           SKY/WX    TMP DP  RH WIND       PRES   REMARKS
EVANSVILLE     CLOUDY    42  23  46 N12G21    30.20S
HUNTINGBURG *+ PTSUNNY   41  21  45 N13G21    30.19R

$$

INZ062-063-066-070>080-084-089>092-152100-
SOUTH CENTRAL AND SOUTHEAST INDIANA

CITY           SKY/WX    TMP DP  RH WIND       PRES   REMARKS
BLOOMINGTON    CLOUDY    42  17  36 W13G18    30.15R

$$




USA.gov is the U.S. government's official web portal to all federal, state and local government web resources and services.